Location: Lourdes
(43.1000°N, 0.0500°W)
Time: 01:01:43
(UTC+00:00)

Cosmos 773 Rocket - Pass Details

Date: 18 April 2021
Orbit: 745 x 777 km, 74.1° (Epoch: 10 May)

Event Time Altitude Azimuth Distance (km) Brightness Sun altitude
Rises 01:38:52 0° 336° (NNW) 3,258 7.7 -31.5°
Reaches altitude 10° 01:41:16 10° 334° (NNW) 2,330 6.9 -31.3°
Enters shadow 01:43:57 30° 325° (NW) 1,362 5.4 -31.0°
